Terminal Aerodrome Forecast
Issued by NWS Nashville, TN

Home | Current Version | Previous Version | Text Only | Print | Product List | Glossary On
Versions: 1 2 3 4 5 6 7 8 9 10 11 12 13 14 15 16 17 18 19 20 21 22 23 24 25 26 27 28 29 30 31 32
000
FTUS44 KOHX 040715 AAA
TAFBNA
TAF AMD
KBNA 040715Z 0407/0506 18003KT P6SM SCT028 BKN040
     FM040800 21003KT 5SM BR OVC010
     FM041400 23006KT P6SM BKN025
     FM042000 24006KT P6SM VCTS BKN050CB
     FM050200 22004KT P6SM BKN050=

USA.gov is the U.S. government's official web portal to all federal, state and local government web resources and services.